JCSAT-17

Last updated on Sun Apr 12 2026 00:02:55 GMT+0000 (Coordinated Universal Time)

1 45245U 20013A 26101.49141918 -.00000316 00000+0 00000+0 0 9992 2 45245 5.3943 356.2033 0004181 20.8960 135.5139 1.00272066 22563
UTC large
Height (km)
Speed (km/s)
/
Latitude / Longitude
Inclination (degrees)
Orbital Period (minutes)
Azimuth
Elevation
Range (km)
Doppler Factor

Next 0 passes for location: London (51.5072 / 0.1276)

Sorry there are no passes over London.
JCSAT-17